Location: Wapato
(46.4478°N, 120.4212°W)
Time: 19:11:08
(UTC+00:00)

S-56A Canister/Altair - Pass Details

Date: 22 May 2026
Orbit: 632 x 2484 km, 38.9° (Epoch: 9 June)

Event Time Altitude Azimuth Distance (km) Brightness Sun altitude
Rises 04:20:17 0° 254° (WSW) 3,272 11.3 -7.0°
Reaches altitude 10° 04:23:06 10° 245° (WSW) 2,184 10.2 -7.4°
Maximum altitude 04:27:24 33° 181° (S) 1,081 8.0 -8.0°
Drops below altitude 10° 04:31:23 10° 117° (ESE) 2,012 9.1 -8.5°
Enters shadow 04:31:24 10° 117° (ESE) 2,018 9.1 -8.5°
